Hourly Data Report for July 21, 2003

SHERBROOKE A
QUEBEC

45°26'00.000" N
71°41'00.000" W
241.40 m
7028124
71610
YSC

Download Data

Hourly Data (July 2003)
Hourly Data Report for July 21, 2003
TIME
LST
Temp Definition
°C
Dew Point Definition
°C
Rel Hum Definition
%
Precip. Amount Definition
mm

Wind Dir Definition
10's deg

Wind Spd Definition
km/h
Visibility Definition
km
Stn Press Definition
kPa
Hmdx Definition


Wind Chill Definition


Weather Definition


00:00 15.1 14.0 93   11 7 15.0 98.57     Rain
01:00 15.0 14.0 94   11 9 15.0 98.47     Rain
02:00 14.6 13.7 94   7 4 8.0 98.44     Rain
03:00 14.6 13.7 94   11 7 12.9 98.37      
04:00 14.4 13.4 94   9 6 15.0 98.31      
05:00 14.2 13.5 96   5 4 9.7 98.27      
06:00 15.4 14.4 94   5 4 15.0 98.24      
07:00 16.0 14.6 91   7 6 24.1 98.23     Cloudy
08:00 16.9 15.4 91   3 6 24.1 98.18     Mostly Cloudy
09:00 18.3 16.1 87   6 4 24.1 98.14     Mostly Cloudy
10:00 20.1 17.0 82   5 4 24.1 98.07 25   Mostly Cloudy
11:00 23.7 17.2 67   20 13 24.1 98.05 29   Mostly Cloudy
12:00 23.1 16.3 66   20 15 24.1 98.00 28   Mostly Cloudy
13:00 22.9 16.2 66   21 22 24.1 98.03 28   Mostly Cloudy
14:00 23.2 16.9 68   20 19 24.1 98.02 28   Mostly Cloudy
15:00 22.9 17.2 70   19 13 24.1 97.99 28   Mostly Cloudy
16:00 23.0 16.9 69   22 9 24.1 97.98 28   Mostly Cloudy
17:00 22.5 16.5 69   20 13 12.9 97.93 27    
18:00 21.4 16.7 75   18 15 11.3 97.97 26   Rain
19:00 20.0 16.9 82   15 4 9.7 97.95 25   Rain
20:00 18.6 17.2 92     0 3.2 97.97     Rain
21:00 18.4 17.1 92     0 3.5 97.93     Rain
22:00 18.3 17.0 92   10 6 3.5 97.93     Rain
23:00 18.0 16.8 93     0 3.2 97.82     Rain

Notes on Data Quality.

Legend

  • E = Estimated
  • M = Missing
  • NA = Not Available*
  • [empty] = Indicates an unobserved value
Date modified: